Total_Precipitation_Accumulation
2.17 1.95 3.28 3.57 3.16 2.82 2.72 2.72 2.70 2.67 2.68 2.63 2.44 2.20 1.99 1.86 1.71 1.54 1.38 1.34 1.40 1.42 1.43 1.40 1.43 1.34 1.24 1.19 1.17 1.27 1.42 1.60 1.69 1.69 1.74 1.86 1.84 1.87 2.10 2.46 2.67 2.99 2.60
1.77 1.88 3.14 3.41 2.97 2.54 2.42 2.53 2.67 2.65 2.63 2.49 2.38 2.24 2.07 1.85 1.65 1.52 1.37 1.32 1.30 1.27 1.19 1.30 1.44 1.37 1.29 1.33 1.37 1.42 1.49 1.52 1.63 1.74 1.99 2.09 1.94 1.94 2.03 2.42 2.53 2.82 2.63
1.68 1.78 2.55 3.21 2.86 2.48 2.34 2.45 2.66 2.56 2.53 2.37 2.31 2.17 2.01 1.75 1.62 1.58 1.43 1.35 1.36 1.24 1.13 1.20 1.40 1.34 1.32 1.36 1.42 1.50 1.51 1.61 1.74 1.89 2.36 3.05 2.35 2.05 2.07 2.26 2.39 2.25 2.44
1.51 1.60 2.14 3.11 2.76 2.59 2.52 2.55 2.55 2.48 2.54 2.39 2.26 2.07 1.90 1.72 1.74 1.75 1.74 1.72 1.56 1.33 1.24 1.24 1.42 1.34 1.23 1.33 1.49 1.48 1.48 1.65 1.82 1.89 2.27 2.93 2.74 2.18 2.25 2.41 2.48 2.24 2.30
1.45 1.58 2.42 3.13 2.78 2.62 2.59 2.57 2.45 2.52 2.56 2.39 2.17 1.95 1.75 1.77 2.04 2.09 1.96 1.83 1.59 1.39 1.28 1.26 1.31 1.33 1.25 1.24 1.35 1.37 1.44 1.60 1.79 1.69 2.08 2.81 3.14 2.71 2.25 2.30 2.43 2.35 2.34
1.65 1.67 2.44 3.16 2.94 2.70 2.60 2.52 2.46 2.51 2.61 2.56 2.26 1.96 1.80 1.82 1.91 1.95 1.86 1.74 1.55 1.39 1.28 1.32 1.35 1.32 1.29 1.23 1.27 1.34 1.40 1.50 1.42 1.59 2.13 2.62 3.02 2.66 2.14 2.10 2.34 2.40 2.40
1.60 1.66 2.14 2.87 2.83 2.62 2.50 2.47 2.60 2.64 2.62 2.60 2.38 2.07 1.94 1.91 1.89 1.93 1.85 1.71 1.45 1.35 1.28 1.40 1.41 1.34 1.24 1.24 1.25 1.25 1.37 1.22 1.10 1.50 1.97 2.46 2.62 2.56 2.30 2.30 2.47 2.47 2.60
1.60 1.57 1.86 2.47 2.72 2.62 2.59 2.50 2.58 2.66 2.64 2.49 2.18 1.99 1.88 1.92 1.95 1.96 1.86 1.73 1.48 1.42 1.38 1.35 1.35 1.32 1.27 1.29 1.31 1.32 1.32 1.02 0.86 1.21 1.67 2.34 2.77 2.73 2.46 2.35 2.47 2.56 2.72
1.81 1.78 1.91 2.21 2.44 2.81 2.88 2.72 2.71 2.75 2.66 2.43 2.06 1.96 1.89 1.87 1.76 1.78 1.77 1.66 1.51 1.48 1.37 1.28 1.27 1.26 1.32 1.34 1.32 1.33 1.27 0.99 0.93 1.22 1.28 2.05 2.69 2.75 2.46 2.38 2.43 2.55 2.74
1.88 1.85 1.78 1.93 2.06 2.35 2.58 2.81 2.92 2.84 2.72 2.53 2.15 2.00 1.94 1.86 1.70 1.65 1.54 1.55 1.50 1.53 1.53 1.41 1.34 1.31 1.36 1.40 1.35 1.26 1.19 0.94 0.94 1.03 1.39 1.93 2.78 2.83 2.52 2.46 2.46 2.49 2.59
1.72 1.63 1.56 1.66 1.81 2.03 2.28 2.50 2.80 2.76 2.67 2.47 2.11 2.03 1.98 1.76 1.49 1.46 1.40 1.71 1.62 1.63 1.64 1.61 1.59 1.52 1.39 1.31 1.32 1.15 0.90 0.88 1.09 1.22 1.57 2.31 3.04 3.07 2.77 2.61 2.58 2.51 2.46
1.70 1.55 1.40 1.44 1.57 1.70 1.85 2.37 2.47 2.16 2.01 1.84 1.95 1.90 1.83 1.78 1.59 1.20 1.37 1.76 1.87 1.85 1.66 1.59 1.66 1.42 1.07 0.93 0.97 0.88 0.75 0.86 1.06 1.20 1.59 2.61 3.17 3.17 2.78 2.58 2.71 2.69 2.53
1.46 1.38 1.30 1.30 1.27 1.28 1.47 1.82 2.06 2.09 2.02 1.83 1.72 1.68 1.73 1.65 1.44 1.23 1.31 1.41 1.40 1.35 1.24 1.24 1.17 0.94 0.86 0.91 0.88 0.75 0.71 0.81 0.98 1.13 1.63 2.64 3.21 3.23 2.83 2.62 2.65 2.63 2.53
1.27 1.23 1.17 1.10 1.07 1.04 1.15 1.25 1.36 1.61 1.71 1.66 1.44 1.29 1.35 1.46 1.41 1.22 1.22 1.25 1.26 1.23 1.28 1.27 1.19 1.06 1.01 1.00 0.91 0.89 0.91 0.96 1.01 1.12 1.59 2.41 3.25 3.43 3.32 3.20 2.99 2.84 2.67
1.23 1.21 1.10 0.96 0.97 0.99 1.09 1.15 1.08 1.30 1.47 1.52 1.46 1.26 1.18 1.21 1.26 1.20 1.08 1.17 1.18 1.16 1.15 1.16 1.13 1.16 1.24 1.20 1.11 1.11 1.13 1.10 1.03 1.03 1.33 1.98 3.00 3.77 4.04 3.99 3.45 3.10 2.89
1.10 1.16 1.08 1.01 1.05 1.02 0.97 1.02 1.02 1.09 1.22 1.24 1.35 1.30 1.24 1.18 1.15 1.17 1.15 1.21 1.25 1.24 1.18 1.10 1.05 1.19 1.24 1.26 1.22 1.16 1.11 1.01 1.02 1.15 1.37 1.60 1.92 2.62 3.64 4.02 3.78 3.48 3.26
0.99 0.97 0.92 0.92 1.02 1.01 1.00 1.01 1.01 1.14 1.19 1.18 1.21 1.17 1.24 1.19 1.17 1.18 1.18 1.22 1.24 1.30 1.30 1.25 1.21 1.28 1.30 1.38 1.40 1.23 1.15 1.10 1.05 1.13 1.27 1.45 1.36 1.52 2.38 3.35 3.76 3.55 3.44
0.88 0.87 0.85 0.75 0.87 1.00 1.08 1.13 1.23 1.28 1.29 1.30 1.22 1.13 1.13 1.11 1.12 1.20 1.21 1.24 1.33 1.30 1.34 1.42 1.43 1.48 1.50 1.54 1.53 1.33 1.15 1.24 1.15 1.13 1.28 1.35 1.37 1.34 1.61 2.06 2.55 2.92 3.38
0.89 0.90 0.92 0.85 0.89 1.01 1.07 1.22 1.32 1.42 1.48 1.57 1.49 1.45 1.38 1.25 1.26 1.37 1.42 1.42 1.44 1.48 1.46 1.39 1.41 1.53 1.66 1.65 1.47 1.38 1.28 1.30 1.29 1.26 1.44 1.43 1.43 1.43 1.50 1.45 1.57 1.94 2.63
0.94 0.94 0.99 1.05 1.07 1.19 1.35 1.58 1.80 1.92 2.05 2.15 2.07 1.95 1.76 1.54 1.49 1.66 1.71 1.58 1.62 1.74 1.81 1.67 1.74 1.65 1.60 1.68 1.49 1.43 1.43 1.38 1.34 1.41 1.46 1.53 1.64 1.49 1.47 1.40 1.38 1.34 1.73
0.96 0.95 0.94 0.99 1.09 1.20 1.41 1.72 2.23 2.51 2.59 2.46 2.41 2.31 2.08 1.85 1.82 2.00 2.04 2.02 2.02 2.04 2.02 1.94 2.12 2.05 1.77 1.68 1.91 1.89 1.70 1.51 1.41 1.37 1.42 1.66 1.76 1.67 1.68 1.60 1.53 1.44 1.34
0.81 0.85 1.00 1.05 1.11 1.22 1.47 1.77 2.15 2.57 2.63 2.56 2.45 2.35 2.24 2.11 2.06 2.09 2.31 2.44 2.40 2.60 2.63 2.39 2.50 2.54 2.14 1.89 2.20 2.55 2.25 2.00 1.54 1.41 1.53 1.59 1.69 1.78 1.82 1.67 1.53 1.47 1.46
0.74 0.70 0.83 1.00 1.19 1.48 1.75 2.05 2.23 2.51 2.62 2.62 2.48 2.41 2.42 2.35 2.23 2.30 2.39 2.55 2.56 2.66 2.87 2.99 2.87 2.95 2.73 2.30 2.17 2.55 2.50 2.31 2.07 1.67 1.57 1.64 1.78 1.83 1.88 1.88 1.69 1.47 1.45
0.68 0.65 0.74 0.89 1.18 1.57 1.91 2.13 2.39 2.75 2.85 2.69 2.60 2.51 2.50 2.50 2.48 2.60 2.59 2.65 2.67 2.69 2.81 2.97 2.95 3.13 3.24 2.82 2.45 2.20 2.05 2.06 2.24 2.06 1.77 1.71 1.84 1.84 1.84 1.87 1.91 1.78 1.61
0.72 0.74 0.81 1.00 1.28 1.60 1.83 2.10 2.44 2.63 2.74 2.79 2.67 2.61 2.58 2.60 2.61 2.66 2.73 2.86 2.84 2.81 2.75 2.96 3.05 3.16 3.12 3.07 2.92 2.74 2.58 2.33 1.97 2.13 2.14 1.93 1.81 1.69 1.74 1.88 2.04 2.00 1.85
0.76 0.87 0.98 1.14 1.34 1.60 1.82 2.09 2.24 2.43 2.58 2.62 2.65 2.58 2.53 2.57 2.66 2.54 2.47 2.65 2.71 2.73 2.70 2.85 2.99 3.13 3.11 3.17 3.10 2.81 2.83 2.73 2.36 2.31 2.16 1.99 2.00 1.80 1.70 1.78 1.84 1.84 1.84